CW5897 Weather Reports


time (UTC)temp
F
wind
direction
speed
knots
gust
knots
rain 1hr
in
rain 24hr
in
rain mn
in
humidity
%
barometer
mb
20260502191704 51 280 1.7 2.6 0.00 0.06 0.06 84 1008.3
20260502191203 52 280 2.6 5.2 0.00 0.06 0.06 84 1008.4
20260502190703 52 280 1.7 4.3 0.00 0.06 0.06 83 1008.4
20260502190204 52 280 1.7 4.3 0.00 0.06 0.06 81 1008.5
20260502185704 53 170 0.9 8.7 0.00 0.06 0.06 78 1008.4
20260502184203 54 170 4.3 7.8 0.00 0.06 0.06 74 1008.4
20260502183703 55 170 2.6 7.0 0.00 0.06 0.06 74 1008.4
20260502183204 55 170 2.6 7.8 0.00 0.06 0.06 75 1008.3
20260502182203 55 170 4.3 7.8 0.00 0.06 0.06 73 1008.4
20260502181704 55 170 4.3 10.4 0.00 0.06 0.06 75 1008.4
20260502181203 55 220 1.7 7.0 0.00 0.06 0.06 74 1008.4
20260502180704 55 220 2.6 7.8 0.00 0.06 0.06 73 1008.4
20260502180204 55 220 2.6 8.7 0.00 0.06 0.06 72 1008.4
20260502170203 53 170 1.7 4.3 0.00 0.06 0.06 81 1008.7
20260502164204 52 150 0.9 5.2 0.00 0.06 0.06 82 1009.1
20260502163204 51 150 1.7 8.7 0.00 0.06 0.06 83 1009.2
20260502162704 51 150 1.7 5.2 0.00 0.06 0.06 85 1009.3
20260502162204 51 150 1.7 2.6 0.00 0.06 0.06 86 1009.3
20260502161703 51 150 2.6 4.3 0.00 0.06 0.06 89 1009.3
20260502161203 51 150 0.9 2.6 0.00 0.06 0.06 87 1009.4
20260502160703 51 150 0.9 2.6 0.00 0.06 0.06 90 1009.4
20260502152204 49 140 1.7 2.6 0.01 0.06 0.06 91 1009.9
20260502151704 49 140 0.9 2.6 0.01 0.06 0.06 91 1010.0
20260502151203 49 140 0.9 2.6 0.01 0.06 0.06 91 1010.0
20260502150204 49 140 1.7 2.6 0.01 0.06 0.06 90 1009.8
20260502130703 46 150 1.7 2.6 0.02 0.05 0.05 96 1010.6
20260502130204 46 150 1.7 2.6 0.02 0.05 0.05 96 1010.5
20260502123203 44 300 0.9 1.7 0.03 0.05 0.05 95 1010.8
20260502122704 44 300 0.0 1.7 0.02 0.04 0.04 95 1010.8
20260502122204 44 300 0.0 0.0 0.02 0.04 0.04 95 1010.7
20260502121704 44 300 0.0 0.9 0.02 0.04 0.04 95 1010.8
20260502120703 44 300 0.9 2.6 0.01 0.03 0.03 95 1010.6
20260502120204 44 300 0.9 2.6 0.01 0.03 0.03 95 1010.6
20260502115703 44 250 1.7 2.6 0.02 0.03 0.03 96 1010.3
20260502114703 44 250 0.0 2.6 0.01 0.02 0.02 95 1010.3
20260502114204 44 250 0.9 1.7 0.01 0.02 0.02 95 1010.2
20260502113704 44 250 0.9 2.6 0.01 0.02 0.02 95 1010.0
20260502113204 44 250 0.9 1.7 0.01 0.02 0.02 96 1009.9
20260502112704 44 250 0.0 0.9 0.02 0.02 0.02 95 1009.9
20260502110703 44 250 0.9 2.6 0.02 0.02 0.02 94 1010.1
20260502110203 44 250 1.7 2.6 0.02 0.02 0.02 94 1010.2
20260502104704 45 280 0.9 2.6 0.01 0.01 0.01 94 1009.8
20260502103703 45 280 0.9 4.3 0.01 0.01 0.01 93 1009.6
20260502103204 45 280 1.7 2.6 0.01 0.01 0.01 93 1009.6
20260502102704 45 280 0.9 1.7 0.00 0.00 0.00 93 1009.5
20260502100704 45 280 0.9 1.7 0.00 0.00 0.00 93 1009.5
20260502100203 45 280 0.9 0.9 0.00 0.00 0.00 92 1009.5
20260502091203 45 270 1.7 4.3 0.00 0.00 0.00 92 1009.6
20260502090704 45 270 1.7 2.6 0.00 0.00 0.00 91 1009.4
20260502090204 45 270 1.7 2.6 0.00 0.00 0.00 90 1009.2
20260502071204 45 230 0.9 1.7 0.00 0.00 0.00 80 1009.3
20260502070703 45 230 0.0 0.9 0.00 0.00 0.00 79 1009.2
20260502070204 48 230 1.7 2.6 0.00 0.00 0.00 79 1009.5
20260502065704 47 240 1.7 2.6 0.00 0.00 0.00 69 1009.7
20260502065204 47 240 1.7 5.2 0.00 0.00 0.00 79 1009.6
20260502064704 47 240 2.6 5.2 0.00 0.00 0.00 78 1009.6
20260502064204 47 240 2.6 7.0 0.00 0.00 0.00 78 1009.6
20260502063203 47 240 0.0 2.6 0.00 0.00 0.00 76 1009.4
20260502062703 47 240 1.7 2.6 0.00 0.00 0.00 75 1009.4
20260502062204 47 240 0.0 2.6 0.00 0.00 0.00 75 1009.5
20260502061704 47 240 1.7 4.3 0.00 0.00 0.00 74 1009.8
20260502061203 47 240 1.7 7.0 0.00 0.00 0.00 73 1009.9
20260502060703 47 240 1.7 2.6 0.00 0.00 0.00 73 1009.9
20260502060204 47 240 2.6 4.3 0.00 0.00 0.00 73 1009.8
20260502055204 47 240 1.7 5.2 0.00 0.00 0.00 73 1009.7
20260502054204 47 240 0.9 2.6 0.00 0.00 0.00 72 1009.8
20260502053704 47 240 1.7 2.6 0.00 0.00 0.00 72 1009.7
20260502053203 47 240 0.9 2.6 0.00 0.00 0.00 71 1009.7
20260502052704 47 240 1.7 2.6 0.00 0.00 0.00 71 1009.7
20260502052203 47 240 0.0 0.9 0.00 0.00 0.00 69 1009.6
20260502051704 47 240 1.7 2.6 0.00 0.00 0.00 70 1009.7
20260502045704 49 240 0.9 2.6 0.00 0.00 0.00 68 1009.7
20260502045203 49 240 0.0 0.9 0.00 0.00 0.00 68 1009.7
20260502044704 49 240 0.9 2.6 0.00 0.00 0.00 68 1009.8
20260502044204 49 240 0.0 1.7 0.00 0.00 0.00 67 1009.7
20260502043704 49 240 0.9 2.6 0.00 0.00 0.00 66 1009.8
20260502043203 49 240 0.9 1.7 0.00 0.00 0.00 66 1009.7
20260502042704 49 240 0.0 0.9 0.00 0.00 0.00 65 1009.7
20260502042204 49 240 0.9 1.7 0.00 0.00 0.00 51 1009.8
20260502041704 49 240 0.9 1.7 0.00 0.00 0.00 64 1009.8
20260502041204 49 240 0.0 1.7 0.00 0.00 0.00 64 1009.7
20260502040204 50 240 0.9 1.7 0.00 0.00 0.00 63 1010.0
20260502035703 50 220 0.9 1.7 0.00 0.00 0.00 62 1010.0
20260502035203 50 220 0.9 2.6 0.00 0.00 0.00 63 1010.0
20260502034704 50 220 0.9 1.7 0.00 0.00 0.00 62 1009.9
20260502034203 50 220 1.7 2.6 0.00 0.00 0.00 62 1009.9
20260502033204 50 220 0.9 2.6 0.00 0.00 0.00 63 1010.0
20260502032204 49 220 1.7 4.3 0.00 0.00 0.00 62 1010.1
20260502031204 49 220 0.9 2.6 0.00 0.00 0.00 62 1010.0
20260502030704 49 220 0.9 1.7 0.00 0.00 0.00 62 1010.0
20260502030204 50 221 1.7 2.6 0.00 0.00 0.00 62 1010.0
20260502025704 50 310 0.0 0.9 0.00 0.00 0.00 60 1010.0
20260502024703 50 310 1.7 4.3 0.00 0.00 0.00 59 1009.9
20260502023704 50 310 2.6 7.0 0.00 0.00 0.00 59 1009.9
20260502023204 50 310 2.6 7.0 0.00 0.00 0.00 59 1009.8
20260502022703 50 310 0.9 2.6 0.00 0.00 0.00 59 1009.8
20260502022203 50 310 0.0 0.0 0.00 0.00 0.00 57 1009.7
20260502021703 50 310 0.0 0.0 0.00 0.00 0.00 54 1009.6
20260502021203 50 310 0.0 0.9 0.00 0.00 0.00 46 1009.7
20260502020703 50 310 0.0 0.9 0.00 0.00 0.00 54 1009.6
20260502020204 50 310 0.9 2.6 0.00 0.00 0.00 53 1009.7
20260502015704 49 310 0.9 1.7 0.00 0.00 0.00 53 1009.7
20260502014704 49 310 0.0 0.0 0.00 0.00 0.00 55 1009.6
20260502014204 49 310 0.0 0.0 0.00 0.00 0.00 52 1009.5
20260502013703 49 310 0.0 0.0 0.00 0.00 0.00 52 1009.5
20260502013204 50 310 0.0 0.0 0.00 0.00 0.00 52 1009.5
20260502012703 50 310 0.0 0.0 0.00 0.00 0.00 51 1009.5
20260502012204 50 310 0.0 0.0 0.00 0.00 0.00 50 1009.4
20260502011703 50 310 0.0 0.0 0.00 0.00 0.00 50 1009.5
20260502011204 51 310 0.0 0.0 0.00 0.00 0.00 50 1009.4
20260502010704 51 310 0.0 0.0 0.00 0.00 0.00 50 1009.4
20260502010204 51 309 0.0 0.0 0.00 0.00 0.00 49 1009.3
20260502005703 52 260 0.0 0.0 0.00 0.00 0.00 49 1009.2
20260502005203 52 260 0.0 0.0 0.00 0.00 0.00 48 1009.2
20260502004704 53 260 0.0 0.0 0.00 0.00 0.00 47 1009.2
20260502003704 54 260 0.0 0.0 0.00 0.00 0.00 47 1009.1
20260502003203 54 260 0.0 0.0 0.00 0.00 0.00 45 1009.1
20260502002204 55 260 0.9 1.7 0.00 0.00 0.00 44 1008.9
20260502001703 55 260 0.9 1.7 0.00 0.00 0.00 43 1008.8
20260502001204 55 260 0.9 2.6 0.00 0.00 0.00 42 1008.7
20260502000704 55 260 1.7 1.7 0.00 0.00 0.00 42 1008.6
20260502000204 56 260 1.7 4.3 0.00 0.00 0.00 40 1008.6
20260501235703 56 270 0.9 2.6 0.00 0.00 0.00 32 1008.5
20260501234704 57 270 0.9 2.6 0.00 0.00 0.00 39 1008.3
20260501234203 57 270 1.7 7.0 0.00 0.00 0.00 38 1008.2
20260501233703 57 270 1.7 2.6 0.00 0.00 0.00 38 1008.2
20260501233203 58 270 1.7 4.3 0.00 0.00 0.00 38 1008.1
20260501232704 58 270 2.6 7.8 0.00 0.00 0.00 37 1008.1
20260501232203 58 270 4.3 7.8 0.00 0.00 0.00 36 1007.8
20260501231204 58 270 2.6 7.8 0.00 0.00 0.00 36 1007.8
20260501230703 58 270 1.7 4.3 0.00 0.00 0.00 37 1007.7
20260501230204 59 270 1.7 4.3 0.00 0.00 0.00 38 1007.6
20260501225704 59 250 1.7 7.0 0.00 0.00 0.00 37 1007.7
20260501225204 59 250 5.2 10.4 0.00 0.00 0.00 36 1007.6
20260501224703 59 250 4.3 8.7 0.00 0.00 0.00 37 1007.5
20260501224204 60 250 2.6 7.0 0.00 0.00 0.00 36 1007.5
20260501222204 60 250 3.5 8.7 0.00 0.00 0.00 37 1007.6
20260501221204 60 250 2.6 5.2 0.00 0.00 0.00 37 1007.6
20260501220703 60 250 1.7 4.3 0.00 0.00 0.00 36 1007.5
20260501215703 60 270 3.5 7.0 0.00 0.00 0.00 37 1007.4
20260501215204 60 270 2.6 7.0 0.00 0.00 0.00 37 1007.4
20260501214704 60 270 3.5 7.0 0.00 0.00 0.00 37 1007.4
20260501214204 60 270 2.6 11.3 0.00 0.00 0.00 38 1007.4
20260501213704 60 270 5.2 11.3 0.00 0.00 0.00 36 1007.3
20260501213203 60 270 2.6 8.7 0.00 0.00 0.00 36 1007.3
20260501212704 60 270 1.7 8.7 0.00 0.00 0.00 37 1007.2
20260501211704 60 270 5.2 10.4 0.00 0.00 0.00 38 1007.2
20260501211203 60 270 4.3 10.4 0.00 0.00 0.00 37 1007.3
20260501210703 60 270 0.9 6.1 0.00 0.00 0.00 39 1007.3
20260501210203 60 270 4.3 10.4 0.00 0.00 0.00 37 1007.2
20260501205704 60 280 2.6 8.7 0.00 0.00 0.00 39 1007.3
20260501205204 59 280 3.5 10.4 0.00 0.00 0.00 39 1007.2
20260501204703 59 280 2.6 4.3 0.00 0.00 0.00 39 1007.2
20260501204204 59 280 2.6 7.0 0.00 0.00 0.00 37 1007.2
20260501203703 60 280 5.2 12.2 0.00 0.00 0.00 37 1007.2
20260501203204 60 280 5.2 10.4 0.00 0.00 0.00 37 1007.1
20260501202704 60 280 4.3 10.4 0.00 0.00 0.00 37 1007.0
20260501202203 60 280 5.2 10.4 0.00 0.00 0.00 39 1007.0
20260501201703 60 280 3.5 7.0 0.00 0.00 0.00 40 1006.9
20260501200703 60 280 2.6 10.4 0.00 0.00 0.00 38 1007.0
20260501200204 60 280 5.2 8.7 0.00 0.00 0.00 38 1006.9
20260501195703 60 270 6.1 11.3 0.00 0.00 0.00 37 1007.0
20260501195204 60 270 5.2 10.4 0.00 0.00 0.00 37 1007.0
20260501194704 60 270 4.3 7.8 0.00 0.00 0.00 38 1006.9
20260501194204 60 270 6.1 12.2 0.00 0.00 0.00 37 1007.2
20260501193704 60 270 5.2 10.4 0.00 0.00 0.00 37 1007.1
20260501192704 60 270 4.3 11.3 0.00 0.00 0.00 36 1007.2
20260501192203 59 270 3.5 14.8 0.00 0.00 0.00 38 1007.2